Change the Weather History Date:

Friday, March 28, 2014

  Actual Average Record
Temperature  
Mean Temperature 58 °F -  
Max Temperature 73 °F 67 °F 86 °F (2007)
Min Temperature 44 °F 46 °F 28 °F (2001)
Degree Days  
Heating Degree Days 6    
Growing Degree Days 8 (Base 50)    
Moisture  
Dew Point 58 °F    
Average Humidity 89    
Maximum Humidity 100    
Minimum Humidity 50    
Precipitation  
Precipitation 0.04 in - - ()
Sea Level Pressure  
Sea Level Pressure 30.17 in    
Wind  
Wind Speed 6 mph (SSE)    
Max Wind Speed 17 mph    
Max Gust Speed 26 mph    
Visibility 10 miles    
Events Rain    
Averages and records for this station are not official NWS values.
T = Trace of Precipitation, MM = Missing Value Source: NWS Daily Summary

Daily Weather History Graph

Daily Weather History Graph

Search for Another Location

Airport or City:

Trip Planner

Search our weather history database for the weather conditions in past years. The results will help you decide how hot, cold, wet, or windy it might be!

Date:

Astronomy

Mar. 28, 2014 Rise Set
Actual Time 7:04 AM EDT 7:30 PM EDT
Civil Twilight 6:38 AM EDT 7:55 PM EDT
Nautical Twilight 6:08 AM EDT 8:25 PM EDT
Astronomical Twilight 5:38 AM EDT 8:56 PM EDT
Moon 5:28 AM EDT (3/28) 5:28 PM EDT (3/28)
Length of Visible Light 13h 16m
Length of Day
12h 25m
Waning Crescent, 6% of the Moon is Illuminated
Mar 28
Waning Crescent
Mar 30
New
Apr 7
First Quarter
Apr 15
Full
Apr 22
Last Quarter

Hourly Weather History & Observations

Time (EDT) Temp. Windchill Dew Point Humidity Pressure Visibility Wind Dir Wind Speed Gust Speed Precip Events Conditions
12:58 AM 44.4 °F 42.9 °F 37.4 °F 76% 30.30 in 10.0 mi ESE 3.5 mph - N/A   Partly Cloudy
1:58 AM 44.6 °F - 38.5 °F 79% 30.28 in 10.0 mi SE 1.2 mph - N/A   Scattered Clouds
2:58 AM 46.2 °F 44.1 °F 42.8 °F 88% 30.27 in 10.0 mi SSE 4.6 mph - N/A   Mostly Cloudy
3:58 AM 46.9 °F - 45.0 °F 93% 30.26 in 10.0 mi South 3.5 mph - N/A   Clear
4:58 AM 47.7 °F - 46.8 °F 97% 30.24 in 10.0 mi SSE 4.6 mph - N/A   Clear
5:58 AM 47.7 °F - 46.9 °F 97% 30.24 in 10.0 mi SSE 4.6 mph - N/A   Clear
6:58 AM 48.2 °F - 47.7 °F 98% 30.24 in 10.0 mi SSE 4.6 mph - N/A   Clear
7:58 AM 51.1 °F - 50.2 °F 97% 30.22 in 10.0 mi SSE 8.1 mph - N/A   Clear
8:58 AM 55.8 °F - 53.1 °F 91% 30.24 in 10.0 mi Variable 3.5 mph - N/A   Clear
9:58 AM 63.5 °F - 53.2 °F 69% 30.24 in 10.0 mi South 6.9 mph - N/A   Clear
10:58 AM 68.5 °F - 52.7 °F 57% 30.22 in 10.0 mi South 17.3 mph 26.5 mph N/A   Clear
11:58 AM 71.6 °F - 53.2 °F 52% 30.20 in 10.0 mi SSW 16.1 mph 25.3 mph N/A   Partly Cloudy
12:58 PM 73.0 °F - 53.4 °F 50% 30.18 in 10.0 mi SSW 13.8 mph 23.0 mph N/A   Scattered Clouds
1:02 PM 73.4 °F - 53.6 °F 50% 30.16 in 10.0 mi South 15.0 mph 20.7 mph N/A   Scattered Clouds
1:58 PM 72.0 °F - 54.3 °F 54% 30.16 in 10.0 mi South 11.5 mph 19.6 mph N/A   Mostly Cloudy
2:58 PM 73.4 °F - 55.8 °F 54% 30.13 in 10.0 mi South 12.7 mph 20.7 mph N/A   Mostly Cloudy
3:58 PM 70.9 °F - 56.7 °F 61% 30.13 in 10.0 mi South 12.7 mph 20.7 mph N/A   Overcast
4:58 PM 68.5 °F - 58.6 °F 71% 30.13 in 10.0 mi South 5.8 mph - N/A   Overcast
5:04 PM 68.0 °F - 59.0 °F 73% 30.13 in 10.0 mi South 12.7 mph - N/A Rain Light Rain
5:13 PM 64.4 °F - 64.4 °F 100% 30.14 in 5.0 mi SSW 15.0 mph 20.7 mph N/A Rain Light Rain
5:28 PM 62.6 °F - 62.6 °F 100% 30.14 in 9.0 mi SSW 5.8 mph - N/A Rain Light Rain
5:31 PM 62.6 °F - 62.6 °F 100% 30.14 in 10.0 mi South 6.9 mph - N/A   Overcast
5:37 PM 62.6 °F - 62.6 °F 100% 30.14 in 10.0 mi Variable 4.6 mph - N/A   Overcast
5:40 PM 62.6 °F - 62.6 °F 100% 30.14 in 10.0 mi South 4.6 mph - N/A   Overcast
5:58 PM 63.3 °F - 63.1 °F 99% 30.14 in 10.0 mi South 4.6 mph - 0.03 in   Overcast
6:22 PM 64.4 °F - 62.6 °F 94% 30.14 in 10.0 mi South 6.9 mph - N/A   Overcast
6:25 PM 64.4 °F - 62.6 °F 94% 30.14 in 10.0 mi South 8.1 mph - N/A   Overcast
6:58 PM 64.0 °F - 63.5 °F 98% 30.15 in 10.0 mi South 6.9 mph - N/A   Overcast
7:07 PM 64.4 °F - 62.6 °F 94% 30.14 in 10.0 mi South 6.9 mph - N/A   Overcast
7:58 PM 63.0 °F - 62.4 °F 98% 30.15 in 10.0 mi SSE 8.1 mph - N/A   Clear
8:10 PM 62.6 °F - 62.6 °F 100% 30.14 in 10.0 mi SSE 6.9 mph - N/A   Mostly Cloudy
8:58 PM 62.6 °F - 62.1 °F 98% 30.15 in 10.0 mi SSE 8.1 mph - N/A   Overcast
9:10 PM 62.6 °F - 62.6 °F 100% 30.14 in 10.0 mi SSE 6.9 mph - N/A   Overcast
9:31 PM 62.6 °F - 62.6 °F 100% 30.14 in 10.0 mi SSE 5.8 mph - N/A   Overcast
9:40 PM 62.6 °F - 62.6 °F 100% 30.14 in 10.0 mi SSE 6.9 mph - N/A   Overcast
9:58 PM 62.2 °F - 61.9 °F 99% 30.15 in 10.0 mi SE 5.8 mph - N/A   Overcast
10:01 PM 62.6 °F - 62.6 °F 100% 30.14 in 10.0 mi SSE 4.6 mph - N/A   Overcast
10:04 PM 62.6 °F - 62.6 °F 100% 30.14 in 10.0 mi SSE 6.9 mph - N/A   Overcast
10:10 PM 62.6 °F - 62.6 °F 100% 30.14 in 10.0 mi SSE 5.8 mph - N/A   Overcast
10:57 PM 62.6 °F - 62.6 °F 100% 30.14 in 10.0 mi SSE 4.6 mph - N/A Rain Light Rain
10:58 PM 62.1 °F - 61.7 °F 99% 30.15 in 10.0 mi SSE 4.6 mph - N/A Rain Light Rain
11:15 PM 62.6 °F - 60.8 °F 94% 30.13 in 10.0 mi SSE 4.6 mph - N/A   Overcast
11:18 PM 62.6 °F - 60.8 °F 94% 30.13 in 10.0 mi SE 4.6 mph - N/A   Overcast
11:21 PM 62.6 °F - 60.8 °F 94% 30.13 in 10.0 mi SE 4.6 mph - N/A   Overcast
11:22 PM 62.6 °F - 60.8 °F 94% 30.13 in 10.0 mi SSE 5.8 mph - N/A Rain Light Rain
11:32 PM 62.6 °F - 60.8 °F 94% 30.13 in 10.0 mi SSE 4.6 mph - N/A   Overcast
11:48 PM 62.6 °F - 62.6 °F 100% 30.12 in 10.0 mi SE 4.6 mph - N/A Rain Light Rain
11:51 PM 62.6 °F - 62.6 °F 100% 30.12 in 10.0 mi SSE 4.6 mph - N/A Rain Light Rain
11:58 PM 61.7 °F - 61.7 °F 100% 30.13 in 10.0 mi SE 3.5 mph - 0.01 in Rain Light Rain